UMBRA-2001 (48906 NORAD) Tracking and Keplerian Element Data

This shows tracking and keplerian element data for the satellite.

Feedback or suggestion? Click here.




ElementValue
Catalog48906
NameUMBRA-2001
Epoch Orbit1647
Epoch Day285.7779102
Epoch Year2021
RAAN52.9837
Inclination97.5206
Eccentricity0.0009961
Argument of Perigee230.9178
Mean Anonmoly129.1166
Mean Motion15.13002389
Decay Rate2.58E-05
L11 48906U 21059AD 21285.77791020 .00002580 00000-0 14973-3 0 9997
L22 48906 97.5206 52.9837 0009961 230.9178 129.1166 15.13002389 16473

Live tracking and technical data element details for UMBRA-2001 (NORAD 48906). UMBRA-2001 can be tracked NOW for your location showing map with azimuth and elevation plus other details from your city location.

Track the satellite on the map from your city or location and see movement details for azimuth, elevation, latitude, longitude, range, height, and movement on the map or in text.







IsCatalogInMostPopularTable: catalog: 48906, numindb: 19
Update: records affected: 1



GetName: 48906 UMBRA-2001

Hit Count: updated at: Tue, 19 Oct 2021 08:37:35 GMT